Weather History for Scappoose, OR

Change the Weather History Date:

Wednesday, November 13, 2013

  Actual Average Record
Temperature  
Mean Temperature 47 °F -  
Max Temperature 58 °F - 66 °F (1999)
Min Temperature 37 °F - 28 °F (2003)
Degree Days  
Heating Degree Days 17    
Month to date heating degree days 217  
Since 1 July heating degree days 787  
Cooling Degree Days 0    
Month to date cooling degree days 0  
Year to date cooling degree days 396  
Moisture  
Dew Point 42 °F    
Average Humidity 83    
Maximum Humidity 100    
Minimum Humidity 66    
Precipitation  
Precipitation 0.00 in - 0.89 in (2001)
Month to date precipitation 2.20  
Year to date precipitation 24.71  
Sea Level Pressure  
Sea Level Pressure 30.41 in    
Wind  
Wind Speed 1 mph (West)    
Max Wind Speed 6 mph    
Max Gust Speed 7 mph    
Visibility 3 miles    
Events Fog    
T = Trace of Precipitation, MM = Missing Value Source: NWS Daily Summary

Daily Weather History Graph

Daily Weather History Graph

Search for Another Location

Airport:

Trip Planner

Search our weather history database for the weather conditions in past years. The results will help you decide how hot, cold, wet, or windy it might be!

Date:

Astronomy

Nov. 13, 2013 Rise Set
Actual Time 7:08 AM PST 4:42 PM PST
Civil Twilight 6:36 AM PST 5:14 PM PST
Nautical Twilight 6:00 AM PST 5:50 PM PST
Astronomical Twilight 5:25 AM PST 6:25 PM PST
Moon 2:42 PM PST (11/13) 2:56 AM PST (11/13)
Length of Visible Light 10h 37m
Length of Day
9h 33m
Waxing Gibbous, 85% of the Moon is Illuminated
Nov 13
Waxing Gibbous
Nov 17
Full
Nov 25
Last Quarter
Dec 2
New
Dec 9
First Quarter

Hourly Weather History & Observations

Time (PST) Temp. Windchill Dew Point Humidity Pressure Visibility Wind Dir Wind Speed Gust Speed Precip Events Conditions
12:07 AM 43.0 °F - 42.1 °F 97% 30.43 in 2.5 mi Calm Calm - N/A   Clear
12:15 AM 44.1 °F - 42.1 °F 93% 30.43 in 6.0 mi Calm Calm - N/A   Clear
12:41 AM 42.1 °F - 41.0 °F 96% 30.43 in 1.5 mi Calm Calm - N/A   Clear
12:50 AM 42.8 °F - 39.2 °F 87% 30.43 in 0.5 mi Calm Calm - N/A Fog Fog
12:51 AM 41.0 °F - 39.2 °F 93% 30.43 in 0.2 mi Calm Calm - N/A Fog Fog
12:53 AM 42.1 °F 40.2 °F 39.9 °F 92% 30.43 in 0.2 mi West 3.5 mph - N/A Fog Fog
1:09 AM 42.1 °F 40.2 °F 41.0 °F 96% 30.43 in 0.8 mi West 3.5 mph - N/A   Mist
1:16 AM 42.1 °F 40.2 °F 41.0 °F 96% 30.43 in 1.2 mi West 3.5 mph - N/A   Partly Cloudy
1:37 AM 41.0 °F - 39.9 °F 96% 30.43 in 0.8 mi Calm Calm - N/A   Mist
1:53 AM 39.9 °F - 39.0 °F 97% 30.44 in 0.8 mi Calm Calm - N/A   Mist
2:02 AM 39.9 °F - 37.9 °F 93% 30.44 in 0.2 mi Calm Calm - N/A Fog Fog
2:09 AM 39.9 °F 37.8 °F 39.0 °F 97% 30.44 in 0.2 mi WSW 3.5 mph - N/A Fog Fog
2:17 AM 41.0 °F 39.0 °F 39.9 °F 96% 30.44 in 1.0 mi WSW 3.5 mph - N/A   Mostly Cloudy
2:28 AM 42.1 °F - 39.9 °F 92% 30.44 in 0.8 mi Calm Calm - N/A   Overcast
2:35 AM 41.0 °F - 41.0 °F 100% 30.44 in 1.5 mi Calm Calm - N/A   Overcast
2:47 AM 41.0 °F - 39.2 °F 93% 30.44 in 3.0 mi Calm Calm - N/A   Overcast
2:53 AM 42.1 °F - 41.0 °F 96% 30.44 in 6.0 mi Calm Calm - N/A   Overcast
3:53 AM 45.0 °F - 44.1 °F 97% 30.44 in 10.0 mi Calm Calm - N/A   Overcast
4:26 AM 46.0 °F - 44.1 °F 93% 30.44 in 8.0 mi Calm Calm - N/A   Overcast
4:53 AM 46.0 °F - 45.0 °F 96% 30.45 in 9.0 mi Calm Calm - N/A   Overcast
5:53 AM 46.9 °F - 45.0 °F 93% 30.46 in 2.5 mi WNW 4.6 mph - N/A   Overcast
6:03 AM 46.9 °F - 45.0 °F 93% 30.46 in 1.2 mi WNW 4.6 mph - N/A   Overcast
6:37 AM 46.0 °F - 45.0 °F 96% 30.46 in 3.0 mi Calm Calm - N/A   Overcast
6:53 AM 46.9 °F - 45.0 °F 93% 30.46 in 4.0 mi Calm Calm - N/A   Overcast
7:18 AM 46.0 °F 44.8 °F 45.0 °F 96% 30.46 in 2.0 mi WSW 3.5 mph - N/A   Overcast
7:25 AM 46.0 °F - 45.0 °F 96% 30.46 in 1.5 mi Calm Calm - N/A   Overcast
7:53 AM 46.0 °F 43.9 °F 45.0 °F 96% 30.47 in 0.8 mi WNW 4.6 mph - N/A   Overcast
8:12 AM 46.0 °F - 45.0 °F 96% 30.47 in 1.2 mi Calm Calm - N/A   Overcast
8:40 AM 46.0 °F - 46.0 °F 100% 30.47 in 0.5 mi Calm Calm - N/A Fog Fog
8:53 AM 46.9 °F - 46.0 °F 97% 30.47 in 0.5 mi Calm Calm - N/A Fog Fog
9:22 AM 46.9 °F - 46.0 °F 97% 30.48 in 1.0 mi Calm Calm - N/A   Overcast
9:44 AM 48.0 °F - 46.0 °F 93% 30.48 in 3.0 mi SSW 3.5 mph - N/A   Overcast
9:53 AM 46.9 °F - 46.0 °F 97% 30.48 in 2.0 mi Calm Calm - N/A   Overcast
10:31 AM 48.0 °F - 46.0 °F 93% 30.49 in 5.0 mi WSW 5.8 mph - N/A   Overcast
10:53 AM 48.0 °F - 46.9 °F 96% 30.50 in 10.0 mi SSW 4.6 mph - N/A   Overcast
11:12 AM 48.9 °F - 46.9 °F 93% 30.48 in 10.0 mi Calm Calm - N/A   Overcast
11:53 AM 50.0 °F - 46.9 °F 89% 30.47 in 10.0 mi Calm Calm - N/A   Overcast
12:44 PM 52.0 °F - 48.0 °F 86% 30.45 in - Calm Calm - N/A   Unknown
1:53 PM 54.0 °F - 46.9 °F 77% 30.44 in 10.0 mi Calm Calm - N/A   Clear
2:53 PM 57.9 °F - 46.0 °F 65% 30.43 in 10.0 mi Calm Calm - N/A   Partly Cloudy
3:53 PM 55.0 °F - 45.0 °F 69% 30.42 in 10.0 mi Calm Calm - N/A   Clear
4:53 PM 50.0 °F - 46.0 °F 86% 30.40 in 10.0 mi WNW 3.5 mph - N/A   Clear
5:53 PM 46.9 °F - 44.1 °F 90% 30.39 in 10.0 mi West 3.5 mph - N/A   Clear
6:53 PM 45.0 °F - 43.0 °F 93% 30.39 in 7.0 mi Calm Calm - N/A   Clear
7:08 PM 43.0 °F 40.3 °F 41.0 °F 93% 30.38 in 2.0 mi WSW 4.6 mph - N/A   Clear
7:16 PM 43.0 °F 41.3 °F 41.0 °F 93% 30.38 in 9.0 mi WSW 3.5 mph - N/A   Clear
7:53 PM 41.0 °F 39.0 °F 41.0 °F 100% 30.37 in 4.0 mi West 3.5 mph - N/A   Clear
8:27 PM 43.0 °F - 39.0 °F 86% 30.35 in 1.5 mi Calm Calm - N/A   Clear
8:36 PM 41.0 °F - 39.0 °F 93% 30.35 in 0.5 mi Calm Calm - N/A Fog Fog
8:53 PM 39.9 °F - 39.0 °F 97% 30.35 in 0.2 mi Calm Calm - N/A Fog Fog
9:07 PM 39.9 °F 37.8 °F 39.0 °F 97% 30.34 in 0.5 mi WNW 3.5 mph - N/A Fog Fog
9:38 PM 39.9 °F - 39.0 °F 97% 30.33 in 1.2 mi Calm Calm - N/A   Partly Cloudy
9:46 PM 39.0 °F - 37.0 °F 93% 30.33 in 0.8 mi Calm Calm - N/A   Mist
9:53 PM 39.9 °F 37.8 °F 37.0 °F 89% 30.33 in 0.5 mi NW 3.5 mph - N/A Fog Fog
10:00 PM 39.9 °F 37.8 °F 39.0 °F 97% 30.33 in 0.8 mi NNW 3.5 mph - N/A   Mist
10:04 PM 41.0 °F 38.0 °F 39.0 °F 93% 30.33 in 1.2 mi NNW 4.6 mph - N/A   Partly Cloudy
10:07 PM 39.9 °F 36.7 °F 39.0 °F 97% 30.33 in 4.0 mi North 4.6 mph - N/A   Partly Cloudy
10:49 PM 39.2 °F - 39.2 °F 100% 30.32 in 1.8 mi Calm Calm - N/A   Partly Cloudy
10:53 PM 37.0 °F - 37.0 °F 100% 30.31 in 0.8 mi Calm Calm - N/A   Mist
11:03 PM 39.0 °F - 37.0 °F 93% 30.31 in 1.2 mi Calm Calm - N/A   Partly Cloudy
11:10 PM 37.9 °F - 37.0 °F 97% 30.31 in 0.8 mi Calm Calm - N/A   Mist
11:20 PM 37.9 °F - 37.0 °F 97% 30.31 in 0.2 mi Calm Calm - N/A Fog Fog
11:29 PM 37.9 °F - 37.0 °F 97% 30.31 in 0.5 mi Calm Calm - N/A Fog Fog
11:36 PM 39.0 °F - 37.9 °F 96% 30.31 in 0.2 mi Calm Calm - N/A Fog Fog
11:47 PM 41.0 °F - 39.2 °F 93% 30.31 in 0.5 mi Calm Calm - N/A Fog Fog
11:53 PM 41.0 °F - 39.0 °F 93% 30.31 in 0.8 mi Calm Calm - N/A   Mist